Regional Weather Roundup
Issued by NWS

Home | Current Version | Previous Version | Text Only | Print | Product List | Glossary Off
Versions: 1 2 3 4 5 6 7 8 9 10 11 12 13 14 15 16 17 18 19 20 21 22 23 24 25 26 27 28 29 30 31 32 33 34 35 36 37 38 39 40 41 42 43 44 45 46 47 48 49 50

000
ASUS43 KMKX 150520
RWRWI

WISCONSIN REGIONAL WEATHER ROUNDUP
NATIONAL WEATHER SERVICE MILWAUKEE/SULLIVAN WI
1100 PM CST THU DEC 14 2017

NOTE: "FAIR" INDICATES FEW OR NO CLOUDS BELOW 12,000 FEET WITH NO
SIGNIFICANT WEATHER AND/OR OBSTRUCTIONS TO VISIBILITY.

WIZ001-002-006>008-014>016-023>028-150600-
NORTHWEST WISCONSIN

CITY           SKY/WX    TMP DP  RH WIND       PRES   REMARKS
SUPERIOR ARPT  CLOUDY    16   9  74 W6        29.94F WCI   8
ASHLAND        LGT SNOW  16  11  80 W7        29.89F WCI   6
HAYWARD        LGT SNOW  17  12  80 W3        29.89F
SIREN          FLURRIES  19  15  83 W9        29.93S WCI   8
CUMBERLAND     LGT SNOW  18  14  86 W6        29.89F WCI   9
RICE LAKE      LGT SNOW  19  16  88 CALM      29.92F
CHETEK         CLOUDY    19  15  83 W5        29.92F WCI  12
LADYSMITH      FLURRIES  19  13  80 SW5       29.90F WCI  12
EAU CLAIRE     CLOUDY    20  14  77 W7        29.94F WCI  11
MENOMONIE      FLURRIES  22  16  76 W7        29.95F WCI  14
NEW RICHMOND   FLURRIES  20  13  72 W9        29.95F WCI  10
OSCEOLA        CLOUDY    21  14  75 W10       29.99S WCI  10
$$

WIZ003>005-009-010-017-018-150600-
NORTH CENTRAL WISCONSIN

CITY           SKY/WX    TMP DP  RH WIND       PRES   REMARKS
MANITOWISH WTR LGT SNOW  14  13  96 W5        29.82S WCI   6
ARBOR VITAE    LGT SNOW  17  14  88 W6        29.82F WCI   8
WOODRUFF       LGT SNOW  17  14  88 W6        29.82F WCI   8
RHINELANDER    LGT SNOW  16  12  84 W9        29.83F FOG     WCI   4
EAGLE RIVER    LGT SNOW  15  11  84 W6        29.82S WCI   6
LAND O LAKES   LGT SNOW  16  13  88 W3        29.82S VSB 1
PHILLIPS       LGT SNOW  15  13  92 W3        29.86S
TOMAHAWK       FLURRIES  16  12  86 W6        29.86F WCI   7
MEDFORD        FLURRIES  17  13  86 W10       29.87F WCI   4
MERRILL        LGT SNOW  17  15  89 W5        29.88F WCI  10
$$

WIZ029-030-035-036-043>047-150600-
CENTRAL WISCONSIN

CITY           SKY/WX    TMP DP  RH WIND       PRES   REMARKS
WAUSAU         LGT SNOW  18  15  88 W8        29.88F FOG     WCI   8
MOSINEE        NOT AVBL
MARSHFIELD     LGT SNOW  19  15  84 W13       29.90S FOG     WCI   6
STEVENS POINT  MIX PCPN  19  17  95 W6        29.92F WCI  10
WAUPACA        LGT SNOW  24  17  77 SW7       29.93F WCI  15
WAUTOMA        FLURRIES  21  15  78 SW7       29.94F WCI  12
WISC RAPIDS    CLOUDY    21  15  78 NW7       29.94F WCI  12
CAMP DOUGLAS   CLOUDY    23  18  80 W12       29.94F WCI  12
$$

WIZ011>013-019>022-031-037>040-048>050-150600-
NORTHEAST WISCONSIN

CITY           SKY/WX    TMP DP  RH WIND       PRES   REMARKS
ANTIGO         LGT SNOW  17  14  90 W9        29.85F WCI   5
SHAWANO        LGT SNOW  23  18  81 SW6       29.91F WCI  15
OCONTO         CLOUDY    20  16  84 SW5       29.92F WCI  14
STURGEON BAY   FLURRIES  19  16  88 SW10      29.92  WCI   7
GREEN BAY      CLOUDY    21  16  81 S8        29.93F WCI  11
MANITOWOC      CLOUDY    19  14  81 SW6       29.96F WCI  11
APPLETON       CLOUDY    19  14  79 SW7       29.92F WCI  10
CLINTONVILLE   FLURRIES  21  16  79 SW7       29.91F WCI  13
OSHKOSH        CLOUDY    21  15  78 SW7       29.94F WCI  12
$$

WIZ032>034-041-042-053>061-150600-
SOUTHWEST WISCONSIN

CITY           SKY/WX    TMP DP  RH WIND       PRES   REMARKS
LA CROSSE      CLOUDY    24  16  71 NW12      30.00S WCI  13
SPARTA         CLOUDY    23  18  81 NW12G17   29.98S WCI  12
VIROQUA        CLOUDY    22  20  91 W14G21    29.95S WCI   9
BOSCOBEL       CLOUDY    27  18  69 W9G18     30.00F WCI  18
PRAIRIE DU CHI CLOUDY    26  17  68 NW17G26   30.01S WCI  13
PLATTEVILLE    CLOUDY    25  19  77 SW8       29.99F WCI  16
$$

WIZ056-057-062-063-064-067-068-150600-
SOUTH CENTRAL WISCONSIN

CITY           SKY/WX    TMP DP  RH WIND       PRES   REMARKS
REEDSBURG      CLOUDY    24  17  73 W8        29.95S WCI  15
BARABOO/DELLS  CLOUDY    24  15  69 W7        29.94F WCI  16
LONE ROCK      CLOUDY    26  18  71 W7        29.98F WCI  18
MINERAL POINT  CLOUDY    27  21  80 SW9       29.95F WCI  17
MADISON        FLURRIES  24  15  68 SW7       29.97F WCI  16
MIDDLETON      CLOUDY    26  17  70 SW7       29.96F WCI  18
WATERTOWN      CLOUDY    22  15  74 SW8       29.96F WCI  12
MONROE         CLOUDY    23  16  74 SW8       29.97F WCI  14
JANESVILLE     CLOUDY    25  14  63 SW6       29.99F WCI  18
$$

WIZ051-052-058>065-066-070>072-150600-
SOUTHEAST WISCONSIN

CITY           SKY/WX    TMP DP  RH WIND       PRES   REMARKS
MILWAUKEE      CLOUDY    22  13  68 S8        29.99F WCI  12
WAUKESHA       CLOUDY    19  12  73 SW5       29.98F WCI  13
MILWAUKEE/TIMM CLOUDY    21  10  63 SW5       29.99F WCI  15
RACINE         CLOUDY    21  12  68 SW7       30.02F WCI  12
BURLINGTON     PTCLDY    20  16  83 S3        29.99F
KENOSHA        CLOUDY    21  12  68 SW6       30.00F WCI  13
FOND DU LAC    CLOUDY    22  13  68 S8        29.95F WCI  12
SHEBOYGAN      CLOUDY    18  12  77 SW8       29.96F WCI   8
WEST BEND      CLOUDY    19  14  79 S6        29.96F WCI  11
JUNEAU         CLOUDY    21  13  72 S8        29.96F WCI  11
$$

LSZ147-162-150600-
LAKE SUPERIOR

STATION/POSITION TIME  TEMP    WIND        PRES    WAVE
                       AIR SEA DIR/SP/G            HT/PER
                 (UTC) (F)     (DEG/KT/KT) (MB)    (FT/S)
DEVILS ISLAND    0500   18     290/ 13/ 16 1012.8F
SAXON HARBOR     0440   18                 1011.9F
$$

LMZ867-665-643>646-150600-
LAKE MICHIGAN

STATION/POSITION TIME  TEMP    WIND        PRES    WAVE
                       AIR SEA DIR/SP/G            HT/PER
                 (UTC) (F)     (DEG/KT/KT) (MB)    (FT/S)
NORTHPORT PIER   0459   23     240/  1/ 11 1012.9F
KEWAUNEE LAKESHO 0454   20     230/  7/ 10 1013.4F
SHEBOYGAN LAKESH 0500   22     210/ 12/ 13 1015.8F
PORT WASHINGTON  0440   21     240/  6/  9 1016.6F
MILWAUKEE LAKESH 0500   23     230/  9/ 10   N/A
KENOSHA   LAKESH 0500   22     220/  7/ 10 1016.3
$$

TC  - TEMPERATURE IN CELSIUS
VSB - VISIBILITY IN STATUTE MILES
WCI - WIND CHILL INDEX
HX  - HEAT INDEX





USA.gov is the U.S. government's official web portal to all federal, state and local government web resources and services.